Weather History for KCON - May, 2013

Change the Weather History Date:

Monday, May 27, 2013

  Actual Average Record
Temperature  
Mean Temperature 51 °F 59 °F  
Max Temperature 70 °F 72 °F 93 °F (1944)
Min Temperature 32 °F 46 °F 24 °F (1969)
Degree Days  
Heating Degree Days 14 7  
Month to date heating degree days 252 279  
Since 1 July heating degree days 6754 7126  
Cooling Degree Days 0 1  
Month to date cooling degree days 3 10  
Year to date cooling degree days 3 12  
Growing Degree Days 2 (Base 50)    
Moisture  
Dew Point 34 °F    
Average Humidity 62    
Maximum Humidity 100    
Minimum Humidity 23    
Precipitation  
Precipitation 0.00 in 0.13 in 1.65 in (1906)
Month to date precipitation 3.87 3.16  
Year to date precipitation 12.56 15.16  
Snow  
Snow 0.00 in 0.00 in 0.00 in (2002)
Month to date snowfall 0.0 0.2  
Since 1 July snowfall 83.4 61.6  
Snow Depth 0.00 in    
Sea Level Pressure  
Sea Level Pressure 30.11 in    
Wind  
Wind Speed 6 mph (NW)    
Max Wind Speed 21 mph    
Max Gust Speed 29 mph    
Visibility 10 miles    
Events      
T = Trace of Precipitation, MM = Missing Value Source: NWS Daily Summary

Daily Weather History Graph

Daily Weather History Graph

Search for Another Location

Airport or City:

Trip Planner

Search our weather history database for the weather conditions in past years. The results will help you decide how hot, cold, wet, or windy it might be!

Date:

Astronomy

May. 27, 2013 Rise Set
Actual Time 5:11 AM EDT 8:15 PM EDT
Civil Twilight 4:37 AM EDT 8:49 PM EDT
Nautical Twilight 3:53 AM EDT 9:33 PM EDT
Astronomical Twilight 3:02 AM EDT 10:25 PM EDT
Moon 10:50 PM EDT (5/27) 7:46 AM EDT (5/27)
Length of Visible Light 16h 11m
Length of Day
15h 03m
Waning Gibbous, 91% of the Moon is Illuminated
May 27
Waning Gibbous
May 31
Last Quarter
Jun 8
New
Jun 16
First Quarter
Jun 23
Full

Hourly Weather History & Observations

Time (EDT) Temp. Windchill Dew Point Humidity Pressure Visibility Wind Dir Wind Speed Gust Speed Precip Events Conditions
12:51 AM 39.0 °F 35.7 °F 37.0 °F 93% 30.08 in 10.0 mi SSE 4.6 mph - N/A   Clear
1:51 AM 39.9 °F - 36.0 °F 86% 30.09 in 10.0 mi Calm Calm - N/A   Clear
2:51 AM 36.0 °F - 36.0 °F 100% 30.09 in 10.0 mi Calm Calm - N/A   Clear
3:51 AM 34.0 °F - 34.0 °F 100% 30.09 in 10.0 mi Calm Calm - N/A   Clear
4:51 AM 33.1 °F - 32.0 °F 96% 30.11 in 10.0 mi Calm Calm - N/A   Clear
5:51 AM 33.1 °F - 32.0 °F 96% 30.12 in 10.0 mi Calm Calm - N/A   Partly Cloudy
6:51 AM 41.0 °F - 37.9 °F 89% 30.13 in 10.0 mi Calm Calm - N/A   Scattered Clouds
7:51 AM 48.0 °F - 39.9 °F 74% 30.12 in 10.0 mi Calm Calm - N/A   Clear
8:51 AM 54.0 °F - 39.9 °F 59% 30.13 in 10.0 mi Variable 3.5 mph - N/A   Clear
9:51 AM 60.1 °F - 37.0 °F 42% 30.12 in 10.0 mi West 11.5 mph 19.6 mph N/A   Clear
10:51 AM 62.1 °F - 34.0 °F 35% 30.12 in 10.0 mi West 15.0 mph 23.0 mph N/A   Clear
11:51 AM 64.9 °F - 30.9 °F 28% 30.11 in 10.0 mi NNW 17.3 mph 26.5 mph N/A   Clear
12:51 PM 66.0 °F - 30.0 °F 26% 30.10 in 10.0 mi West 17.3 mph 26.5 mph N/A   Clear
1:51 PM 66.9 °F - 30.9 °F 26% 30.09 in 10.0 mi NNW 8.1 mph 21.9 mph N/A   Clear
2:51 PM 68.0 °F - 30.0 °F 24% 30.08 in 10.0 mi NW 12.7 mph 21.9 mph N/A   Clear
3:51 PM 70.0 °F - 30.9 °F 24% 30.08 in 10.0 mi NW 11.5 mph 18.4 mph N/A   Clear
4:51 PM 69.1 °F - 30.9 °F 24% 30.08 in 10.0 mi WNW 16.1 mph 19.6 mph N/A   Clear
5:51 PM 68.0 °F - 30.0 °F 24% 30.09 in 10.0 mi NW 11.5 mph - N/A   Clear
6:51 PM 68.0 °F - 30.0 °F 24% 30.10 in 10.0 mi NW 8.1 mph - N/A   Clear
7:51 PM 63.0 °F - 32.0 °F 31% 30.11 in 10.0 mi North 3.5 mph - N/A   Clear
8:51 PM 55.0 °F - 35.1 °F 47% 30.13 in 10.0 mi Calm Calm - N/A   Clear
9:51 PM 51.1 °F - 37.9 °F 61% 30.15 in 10.0 mi Calm Calm - N/A   Clear
10:51 PM 44.1 °F - 41.0 °F 89% 30.18 in 10.0 mi Calm Calm - N/A   Clear
11:51 PM 42.1 °F 40.2 °F 39.9 °F 92% 30.19 in 10.0 mi ENE 3.5 mph - N/A   Clear